Tracking 29933 objects as of 3-Dec-2024
HD Live streaming from Space Station
objects crossing your sky now

STARLINK-5906

Track STARLINK-5906 now!
10-day predictions
STARLINK-5906 is classified as:


NORAD ID: 55962
Int'l Code: 2023-037BA
Perigee: 577.1 km
Apogee: 581.2 km
Inclination: 70.0 °
Period: 96.1 minutes
Semi major axis: 6950 km
RCS: Unknown
Launch date: March 17, 2023
Source: United States (US)
Launch site: AIR FORCE WESTERN TEST RANGE (AFWTR)
Your satellite tracking list
Your tracking list is empty




NASA's NSSDC Master Catalog

Two Line Element Set (TLE):
1 55962U 23037BA  24337.73671332  .00000712  00000-0  67443-4 0  9991
2 55962  69.9998 349.3359 0002963 270.5861  89.4958 14.98331913 95272
Source of the keplerian elements: AFSPC